Weather in Kostiantynivka

Ukraine / Zaporizhia Region     46°48′57″N   35°24′56″E
temp.,
°C
wind,
m/s
gust,
m/s
humid.,
%
clouds,
%
prec.,
mm/h
press.,
hPa
HPBL,
m
8 august, mon
mon800:00+25n44330 0.0 101351
03:00+23n49360 0.0 1013121
06:00+22ne46353 0.0 101491
09:00+32ene46170 0.0 1014703
12:00+36e67120 0.0 10143898
15:00+35se77160 0.0 10132137
18:00+34se45140 0.0 10131113
21:00+28n22214 0.0 101413
9 august, tue
tue900:00+26n47250 0.0 101494
03:00+24ne45260 0.0 101456
06:00+23ene34270 0.0 101445
09:00+33ene45150 0.0 1014555
12:00+37ese78120 0.0 10133819
15:00+36se910130 0.0 10122750
18:00+35ese79130 0.0 10121765
21:00+29ene472178 0.0 101299
10 august, wed
wed1000:00+25nne4726100 0.0 101291
03:00+25ene41128100 0.0 1011182
06:00+24ene41129100 0.0 1011211
09:00+32e6818100 0.0 1011684
12:00+37ese8913100 0.0 10103692
15:00+37ese9101343 0.0 10093676
18:00+36e7914100 0.0 10093437
21:00+30ene4521100 0.0 100972
11 august, thu
thu1100:00+26nne5926100 0.0 1008151
03:00+26ne51130100 0.0 1008205
06:00+25ne410335 0.0 1010210
09:00+32e81223100 0.0 10101493
12:00+35e9121899 0.0 10102836
15:00+36ese8101765 0.0 10102999
18:00+31e262686 0.1 1010492
21:00+31ne5122099 0.1 1010330
12 august, fri
fri1200:00+27nne61431100 1.6 1010276
03:00+28ene81631100 1.8 1010618
06:00+23ne81765100 6.2 1012552
09:00+23ne41064100 12.4 1013315
12:00+30ese8133950 4.4 10131390
15:00+32e813270 6.3 10121793
18:00+32e510281 0.2 1011831
21:00+27ene47392 0.4 101192